TimeFrame on Redefined Productions
Outwar Sigil TimeFrame

Sigil TimeFrame

95 Gods Updated: 2019-03-21 13:05:01
NameTime LeftWindow Opens
Old World Drake3d 19:122019-03-18 10:53:00
Animated Captain2d 16:372019-03-19 13:28:00
Emperor Neudeus, Controller of the Universe2d 12:042019-03-19 18:01:00
Grivvek, Protector of the Brood1d 14:312019-03-20 15:34:00
Hackerphage, Protector of the Gateway0d 13:242019-03-21 16:41:00
Sigil, Lich of Woe0d 13:192019-03-21 16:46:00
Crantos, Defender of Ultimation0d 12:482019-03-21 17:17:00
Jazzmin, Maiden of Vitality0d 12:452019-03-21 17:20:00
Smoot the Yeti0d 10:032019-03-21 20:02:00
Terrance, Rebel of Rallis0d 09:582019-03-21 20:07:00
Amalgamated Apparition0d 09:552019-03-21 20:10:00
Garland, The Lord Keeper0d 09:172019-03-21 20:48:00
Synge, The Red Dragon0d 01:582019-03-22 04:07:00
Wanhiroeaz the Devourer0d 01:522019-03-22 04:13:00
Lord Sibannac0d 01:382019-03-22 04:27:00
Jorun the Blazing Swordsman0d 01:162019-03-22 04:49:00
Samatha Dark-Soul0d 01:492019-03-22 07:55:00
Felroc, Overseer of Hellfire0d 02:362019-03-22 08:42:00
Lord Xordam0d 03:022019-03-22 09:08:00
Rotborn, Eater of the Dead0d 03:212019-03-22 09:27:00
Traxodon the Plaguebringer0d 04:252019-03-22 10:31:00
Ancient Magus Tarkin0d 04:432019-03-22 10:49:00
Shadow0d 06:272019-03-22 12:33:00
Howldroid, Tormentor of the Pit0d 06:522019-03-22 12:58:00
Tsort0d 07:062019-03-22 13:12:00
Vitkros, Hydra of the Deep0d 08:192019-03-22 14:25:00
Ormsul the Putrid0d 08:212019-03-22 14:27:00
Lacuste of the Swarm0d 08:292019-03-22 14:35:00
Lord Narada0d 09:312019-03-22 15:37:00
Gnorb0d 10:432019-03-22 16:49:00
Zikkir the Dark Archer0d 11:132019-03-22 17:19:00
Freezebreed, The Frozen Manipulator0d 12:082019-03-22 18:14:00
Lord Varan0d 13:442019-03-22 19:50:00
Pinosis0d 15:422019-03-22 21:48:00
Mistress of the Sword0d 15:512019-03-22 21:57:00
Rancid, Lord of Thugs0d 15:552019-03-22 22:01:00
Baron Mu, Dark Rider of the Undead0d 16:452019-03-22 22:51:00
Archdevil Yirkon0d 16:502019-03-22 22:56:00
Ebliss, Fallen Angel of Despair0d 17:212019-03-22 23:27:00
Nayark the Mummified Sorcerer0d 18:492019-03-23 00:55:00
Hyrak, Bringer of Nightmares0d 19:052019-03-23 01:11:00
Anguish0d 19:352019-03-23 01:41:00
Sarcrina the Astral Priestess0d 21:162019-03-23 03:22:00
Dreg nor, Keeper of the Infernal Essence1d 00:032019-03-23 06:09:00
King Ashnar, Lord of the Unliving1d 00:362019-03-23 06:42:00
Volgan the Living Ironbark1d 01:152019-03-23 07:21:00
Viserion, the Necrodragon1d 01:262019-03-23 07:32:00
Melt Bane, The Forbidden Demon Dragon1d 03:202019-03-23 09:26:00
Detox1d 03:372019-03-23 09:43:00
Ganja the Stone Golem1d 05:312019-03-23 11:37:00
Brutalitar, Lord of the Underworld1d 05:342019-03-23 11:40:00
Kretok, Descendant of Nature1d 06:132019-03-23 12:19:00
Varsanor, Master of Darkness1d 06:312019-03-23 12:37:00
Tylos, The Lord Master1d 06:382019-03-23 12:44:00
Bloodchill the Grizzly1d 06:542019-03-23 13:00:00
Nessam1d 08:002019-03-23 14:06:00
Crane1d 08:012019-03-23 14:07:00
Lady Chaos, Queen of the Abyss1d 08:372019-03-23 14:43:00
Lady Ariella1d 09:092019-03-23 15:15:00
Numerocure, The Black Messenger of Evil1d 09:342019-03-23 15:40:00
The Emerald Assassin1d 09:462019-03-23 15:52:00
Murderface1d 11:472019-03-23 17:53:00
Great Lord Ganeshan1d 12:052019-03-23 18:11:00
Nar Zhul, Slayer of All1d 13:202019-03-23 19:26:00
Keeper of Nature1d 13:412019-03-23 19:47:00
Dlanod, the Crazed Chancellor1d 14:102019-03-23 20:16:00
Zertan, The Collector1d 15:282019-03-23 21:34:00
Slashbrood, Devourer of the Blackness1d 16:172019-03-23 22:23:00
Nafir, God of Desolation1d 16:512019-03-23 22:57:00
Threk, King of Lords1d 21:172019-03-24 03:23:00
Skybrine The Inescapable1d 21:352019-03-24 03:41:00
Raiyar, the Shadow Master2d 06:312019-03-24 12:37:00
Bolkor, the Holy Master2d 14:452019-03-24 20:51:00
Lord Suka2d 14:522019-03-24 20:58:00
Xynak, the Arcane Master2d 15:102019-03-24 21:16:00
Ag Nabak the Abomination2d 16:192019-03-24 22:25:00
Akkel the Enflamed Warrior2d 19:292019-03-25 01:35:00
Esquin, the Kinetic Master2d 21:102019-03-25 03:16:00
Quiver, The Renegade3d 02:112019-03-25 08:17:00
Sylvanna TorLai3d 04:182019-03-25 10:24:00
Straya, the Underworld Ruler3d 10:232019-03-25 16:29:00
Crolvak, the Fire Master3d 10:242019-03-25 16:30:00
Windstrike The Vile3d 12:282019-03-25 18:34:00
Gorganus of the Wood3d 13:482019-03-25 19:54:00
Karvaz, Lord of Alsayic3d 14:272019-03-25 20:33:00
Skarthul the Avenged3d 23:472019-03-26 05:53:00
Balerion, Dragon of Dread4d 05:532019-03-26 11:59:00
Anvilfist4d 11:382019-03-26 17:44:00
Kro Shuk, Doomslayer5d 01:462019-03-27 07:52:00
Q-SEC Commander5d 05:042019-03-27 11:10:00
Shaik, Servant of Arkron258d 01:402018-07-07 04:25:00
Rook, Hand of Arkron256d 03:302018-07-09 02:35:00
Noxious Slug49d 06:162019-01-31 23:49:00
Beast of Cards48d 12:112019-02-01 17:54:00
Jade Dragonite31d 19:172019-02-18 10:48:00